Weather in Tourak

Russia / Altai Krai     51°34′37″N   85°00′43″E
temp.,
°C
wind,
m/s
gust,
m/s
humid.,
%
clouds,
%
prec.,
mm/h
press.,
hPa
HPBL,
m
15 may, sat
sat1501:00+5s1187100 0.8 102511
04:00+4s118996 0.0 102511
07:00+6s118572 0.0 102634
10:00+12ene115632 0.0 1025869
13:00+16nne12395 0.0 10231438
16:00+17n22395 0.0 10221604
19:00+15n22485 0.0 10221024
22:00+9sse11765 0.0 102310
16 may, sun
sun1601:00+8ssw11805 0.0 102310
04:00+7s22825 0.0 102317
07:00+9s23744 0.0 102264
10:00+17sw12414 0.0 1020720
13:00+20wnw243988 0.0 10181985
16:00+19nw244383 0.0 10171710
19:00+17w245712 0.1 1017450
22:00+12s22800 0.5 101828
17 may, mon
mon1701:00+10s34825 0.5 101752
04:00+9s3584100 0.0 101669
07:00+11s2479100 0.0 101589
10:00+14nw1368100 0.1 1015259
13:00+12ese0080100 0.6 1016134
16:00+16wnw356549 0.5 10151177
19:00+14nw248668 2.8 1016357
22:00+10w119626 0.6 101710
18 may, tue
tue1801:00+9wsw11965 0.7 101710
04:00+8ssw22965 0.0 101715
07:00+10s23935 0.0 101692
10:00+17sw23565 0.0 1014622
13:00+20wnw473926 0.0 10122692
16:00+21wnw683951 0.0 10102914
19:00+19w51049100 0.1 10092074
22:00+12w31285100 2.4 1011599
19 may, wed
wed1901:00+10ssw2393100 2.9 101055
04:00+9s3392100 0.9 100960
07:00+10ssw2488100 1.3 100890
10:00+14wnw4969100 1.0 10081239
13:00+14wnw4762100 1.8 10071284
16:00+13wnw3674100 1.9 10061008
19:00+10nw2393100 5.1 1007358
22:00+7nnw3598100 2.4 1009502